This is the latest recevied weather packets stored in our database for station/object NR6G-12. If no packets are shown the sender has not sent any weather packets the latest 10 day(s).
| Time | Temp. | Humidity | Pressure | Rain* | Wind** | Luminosity | Snow |
|---|---|---|---|---|---|---|---|
| 1777909320 | 4.44° C | 96% | 1011.7 hPa | 0 mm | - | - | - |
| 1777908240 | 4.44° C | 95% | 1011.7 hPa | 0 mm | - | - | - |
| 1777907880 | 4.44° C | 95% | 1012.5 hPa | 0 mm | - | - | - |
| 1777907520 | 4.44° C | 95% | 1012.2 hPa | 0 mm | - | - | - |
| 1777906440 | 4.44° C | 95% | 1012.1 hPa | 0 mm | - | - | - |
| 1777906080 | 4.44° C | 95% | 1012.1 hPa | 0 mm | - | - | - |
| 1777905720 | 4.44° C | 95% | 1012.1 hPa | 0 mm | - | - | - |
| 1777904881 | 4.44° C | 95% | 1012.1 hPa | 0 mm | - | - | - |
| 1777903441 | 4.44° C | 95% | 1012 hPa | 0 mm | - | - | - |
| 1777903081 | 3.89° C | 95% | 1011.9 hPa | 0 mm | - | - | - |
| 1777901641 | 3.89° C | 94% | 1011.6 hPa | 0 mm | - | - | - |
| 1777901281 | 3.89° C | 94% | 1011.6 hPa | 0 mm | - | - | - |
| 1777900921 | 3.89° C | 94% | 1011.5 hPa | 0 mm | - | - | - |
| 1777898041 | 4.44° C | 90% | 1011 hPa | 0 mm | - | - | - |
| 1777897681 | 4.44° C | 91% | 1011 hPa | 0 mm | - | - | - |
| 1777897321 | 4.44° C | 90% | 1011.1 hPa | 0 mm | - | - | - |
| 1777896962 | 4.44° C | 90% | 1010.9 hPa | 0 mm | - | - | - |
| 1777896601 | 5° C | 89% | 1011.8 hPa | 0 mm | - | - | - |
| 1777896242 | 5° C | 90% | 1011.8 hPa | 0 mm | - | - | - |
| 1777895521 | 5.56° C | 92% | 1012 hPa | 0 mm | - | - | - |
| 1777894441 | 5.56° C | 91% | 1011.9 hPa | 0 mm | - | - | - |
| 1777894081 | 5.56° C | 91% | 1011.9 hPa | 0 mm | - | - | - |
| 1777893721 | 5.56° C | 89% | 1011.9 hPa | 0 mm | - | - | - |
| 1777893361 | 5.56° C | 89% | 1011.9 hPa | 0 mm | - | - | - |
| 1777893002 | 5.56° C | 89% | 1011.9 hPa | 0 mm | - | - | - |
* Rain latest hour (hover to see other rain measurements)
** Current wind speed in m/s (hover to see current wind gust speed)